Content
SEND FEEDBACK

Daily
Averages
Monthly
Summary
United States of America

PUT IN BAY, OHIO


Home > North America > United States > Ohio
Elevation: 561 feet     Latitude: 41 39N     Longitude: 082 48W

WEATHER
 
SELECT A DAY
Number of Records: 124,079;   Date Range: 12/10/00 - 9/22/14
 
SHARE

PRINT THIS DATA

[ ← Previous Day ]
WEATHER ALMANAC - JUNE 26, 2013
[ Next Day → ]
[ °C ]   °F
We're sorry. There is no daily almanac available for Put In Bay, Ohio on June 26, 2013.
WEATHER BY HOUR - JUNE 26, 2013
[ °C ]   °F
Local TimeTemperatureDewpointHumidityBarometerVisibilityWind DirectionWind SpeedGust SpeedPrecipitationEventsConditions
1:00 AM71.1 °F68.5 °F92 %29.86 inWest (270°)12.7 mph0.12 in
2:00 AM68.0 °F66.0 °F90 %29.79 inWest (280°)6.9 mph
2:00 AM68.4 °F65.8 °F92 %29.79 inWest (280°)6.9 mph0.04 in
3:00 AM67.1 °F64.9 °F93 %29.77 inNorth (10°)4.6 mph
4:00 AM67.5 °F65.3 °F93 %29.81 inEast (80°)2.3 mph
5:00 AM67.3 °F65.1 °F93 %29.81 inSSW (210°)1.2 mph
6:00 AM68.4 °F66.0 °F92 %29.82 inSSW (200°)5.8 mph
7:00 AM69.1 °F66.0 °F90 %29.82 inSW (220°)5.8 mph
8:00 AM70.0 °F67.0 °F86 %29.83 inSW (220°)6.9 mph
8:00 AM70.2 °F66.7 °F89 %29.83 inSW (220°)6.9 mph
9:00 AM71.4 °F66.6 °F85 %29.84 inWSW (240°)10.4 mph
10:00 AM72.1 °F67.6 °F86 %29.85 inWSW (250°)9.2 mph
11:00 AM73.0 °F66.9 °F81 %29.83 inWSW (250°)8.1 mph
12:00 PM74.3 °F66.9 °F78 %29.84 inWest (270°)6.9 mph
1:00 PM75.2 °F68.4 °F79 %29.84 inWSW (250°)8.1 mph
2:00 PM78.0 °F68.0 °F64 %29.82 inWSW (250°)5.8 mph
2:00 PM77.9 °F68.0 °F71 %29.82 inWSW (250°)5.8 mph
3:00 PM78.6 °F68.2 °F70 %29.79 inWNW (290°)2.3 mph
4:00 PM77.4 °F69.3 °F76 %29.80 inSouth (190°)11.5 mph
5:00 PM78.1 °F67.6 °F70 %29.78 inSSW (210°)5.8 mph
6:00 PM79.0 °F68.2 °F69 %29.76 inSouth (190°)4.6 mph
7:00 PM78.6 °F68.0 °F70 %29.74 inSSE (160°)2.3 mph
8:00 PM77.0 °F68.0 °F68 %29.74 inSSE (160°)5.8 mph
8:00 PM76.6 °F68.4 °F75 %29.74 inSSE (160°)5.8 mph
9:00 PM74.8 °F68.0 °F79 %29.74 inCalm
10:00 PM73.6 °F68.9 °F85 %29.75 inSouth (170°)6.9 mph
11:00 PM72.7 °F70.0 °F91 %29.74 inSSE (150°)2.3 mph
Hourly data recorded from CXHA, located miles away from Put In Bay, Ohio







STORIES FROM OUR PARTNERS